Temperature
20 21 21 21 20 20 20 20 20 20 20 19 19 19 19 19 19 19 19 19 19 19 19 19 19 19 19 19 19 19 19 19 19 19 19 19 19 19 19 18 18 18 19
21 21 21 21 21 20 20 20 20 20 20 19 19 19 19 19 19 19 19 19 19 19 19 19 19 19 19 19 19 19 19 19 19 19 19 19 19 19 19 19 18 18 18
21 21 21 21 21 20 20 20 20 20 20 20 19 19 19 19 19 19 19 19 19 19 19 19 19 19 19 19 19 19 19 19 19 18 18 18 19 19 19 19 19 19 18
21 21 21 21 21 20 20 20 20 20 20 20 20 19 19 19 19 19 19 19 19 19 19 19 19 19 19 19 19 19 19 19 18 18 18 18 18 19 19 19 19 19 18
20 20 21 21 21 20 20 20 20 20 20 20 20 19 19 19 19 19 19 19 19 19 19 19 19 18 18 18 18 19 19 19 18 18 18 18 19 19 19 19 19 18 18
20 20 21 20 20 20 20 20 20 20 20 20 19 19 19 19 19 19 19 19 19 19 19 19 19 18 18 18 18 18 19 18 18 18 18 18 19 19 19 19 18 18 18
21 20 21 21 20 20 20 20 19 19 19 19 19 19 19 19 19 19 19 19 19 19 19 19 19 18 18 18 18 18 18 18 18 18 18 18 19 19 19 19 18 18 18
21 21 21 21 21 20 20 20 19 19 19 19 19 19 19 19 19 19 19 19 19 19 19 19 18 18 18 18 18 18 18 18 18 18 18 18 19 19 19 19 18 18 18
22 21 21 21 21 20 20 20 20 19 19 19 19 19 19 19 19 19 19 19 19 19 19 19 19 18 18 18 18 18 18 18 18 18 18 18 19 19 19 19 18 18 18
22 22 21 20 20 20 20 20 20 19 19 19 19 19 19 19 19 19 19 19 19 19 19 19 19 19 18 18 18 18 18 18 18 18 18 18 18 19 19 18 18 18 18
21 21 21 20 20 20 20 20 19 19 19 19 19 19 19 19 19 19 19 19 19 19 19 19 19 19 18 18 18 18 18 18 18 18 18 18 19 19 19 19 18 18 18
20 20 20 20 20 20 20 19 19 19 19 19 19 19 19 19 18 18 18 18 18 19 19 19 19 19 19 19 19 19 19 19 18 18 18 18 19 19 19 18 18 18 18
19 20 20 20 20 20 20 19 19 19 19 19 19 19 18 18 18 18 18 18 18 19 19 19 19 19 19 19 18 19 19 19 18 18 18 18 19 19 19 18 18 18 18
19 19 19 20 20 20 20 20 19 19 19 19 18 18 18 18 18 18 18 18 18 18 19 18 19 19 19 19 19 19 19 19 19 19 19 19 19 19 19 18 18 18 18
18 18 18 19 19 19 19 19 19 19 19 19 19 19 18 18 18 18 18 18 18 18 18 18 18 19 19 19 20 20 19 19 19 19 19 18 18 19 18 18 18 18 18
18 18 18 18 18 19 19 19 19 19 19 19 19 19 18 18 18 18 18 18 18 18 18 18 19 19 20 20 20 20 20 20 19 19 19 18 18 18 18 18 18 18 18
18 18 17 17 18 18 18 18 19 19 19 19 19 19 19 18 18 18 18 18 18 18 18 18 19 19 20 20 20 20 20 20 19 19 19 18 18 18 18 18 18 18 18
17 17 17 17 17 17 17 18 18 18 18 18 18 18 19 18 18 18 18 18 18 18 18 19 19 19 20 20 20 20 20 20 19 19 19 18 18 18 18 18 18 18 18
16 16 16 16 16 16 17 17 17 17 18 18 18 18 18 18 18 18 18 18 18 18 18 18 18 19 19 19 19 19 19 19 19 19 19 19 18 18 18 18 18 18 18
16 15 15 16 16 16 16 16 16 16 17 17 17 17 18 18 18 18 18 18 18 18 18 18 18 18 18 19 19 19 19 19 19 19 19 19 19 18 18 18 18 18 18
15 15 15 15 15 15 15 15 15 15 16 16 17 17 17 17 17 17 18 18 18 18 18 18 18 18 18 18 18 19 19 19 19 19 19 19 19 19 18 18 18 18 18
14 14 14 14 14 14 14 14 14 14 15 15 16 16 16 17 17 17 17 17 18 18 18 18 18 18 18 18 18 18 18 19 19 19 19 19 19 19 18 18 18 18 18
13 13 13 13 13 13 13 14 14 14 14 15 15 15 16 16 16 17 17 17 17 17 18 17 17 17 17 17 17 17 17 18 18 18 18 18 18 18 19 18 18 18 18
13 13 13 13 13 13 13 13 13 13 13 14 14 15 15 16 16 16 17 17 17 17 17 17 17 17 17 17 17 17 17 18 18 18 18 18 18 18 18 18 18 18 18
13 12 12 13 13 13 13 13 13 13 13 14 14 14 15 15 16 16 16 16 16 16 17 17 17 17 17 17 17 17 17 17 17 17 17 18 18 18 18 18 18 18 18
13 12 12 12 13 13 13 13 13 13 13 14 14 14 15 15 15 15 16 16 16 16 16 17 17 16 17 17 17 17 17 17 17 17 17 17 17 17 17 18 18 18 18
Wind_Speed
13 15 15 13 12 11 10 10 9 9 8 7 6 5 4 4 3 3 3 3 4 4 4 3 4 4 5 6 7 7 8 8 7 7 8 9 10 9 9 9 7 10 10
16 17 16 14 12 11 10 10 9 9 8 7 6 5 5 4 4 3 3 3 3 3 3 3 2 3 4 5 6 6 6 6 4 4 5 9 10 10 10 11 12 9 9
17 17 15 14 13 11 10 9 9 8 8 7 6 5 5 4 4 3 3 2 2 2 2 2 2 2 3 4 5 5 4 4 4 4 2 5 9 10 10 10 10 9 8
17 16 15 15 13 11 10 9 8 8 7 7 6 5 4 4 3 3 3 2 2 2 2 2 2 2 3 4 4 3 2 4 5 6 4 7 9 10 9 9 9 8 8
15 16 17 15 12 11 9 8 8 7 6 6 5 5 4 4 3 3 2 2 2 2 2 2 2 3 3 4 3 1 1 4 6 5 7 11 11 9 9 9 9 8 8
14 17 16 14 12 10 9 8 8 7 6 6 5 5 4 4 3 3 2 2 2 2 2 2 3 3 3 4 3 2 3 5 7 3 7 11 10 9 9 9 8 8 8
14 17 16 15 12 10 8 8 7 7 6 6 6 5 5 5 4 4 3 3 2 2 2 3 3 4 4 4 3 3 4 6 8 4 9 12 10 8 8 8 8 7 8
12 15 17 17 14 12 10 9 8 8 7 7 7 6 6 5 5 5 4 4 3 2 2 3 4 4 4 4 3 4 5 7 7 3 12 12 9 8 7 7 7 7 7
9 12 14 15 15 14 13 11 10 9 9 9 9 8 8 7 7 6 6 5 5 4 3 4 4 5 5 4 4 5 6 7 10 2 11 11 9 7 6 6 6 6 6
5 5 8 12 14 14 14 15 14 12 11 11 11 10 10 9 9 9 9 8 7 6 5 5 5 5 6 6 6 6 7 8 9 2 12 11 9 7 6 6 6 6 6
8 7 5 3 6 10 14 16 16 14 14 13 12 13 12 12 13 13 14 13 11 9 7 7 7 7 7 8 9 9 8 9 9 7 12 12 10 7 6 5 5 5 5
11 11 10 8 6 5 1 9 12 12 12 13 12 13 14 13 13 14 16 16 14 11 10 9 9 9 10 10 12 11 10 13 9 8 11 13 10 7 6 5 5 5 5
10 11 11 10 8 7 5 2 2 3 7 9 11 12 13 13 10 9 11 14 13 13 11 12 11 11 12 12 11 12 13 11 6 9 12 12 9 7 6 5 5 5 5
8 9 9 10 9 7 6 4 2 1 0 2 6 9 9 6 6 6 7 11 12 12 11 11 10 14 15 16 13 12 12 7 7 12 12 12 9 7 6 6 5 5 5
4 5 5 6 7 6 5 4 3 1 0 2 3 3 6 4 5 4 5 8 11 12 11 7 9 10 9 9 11 10 8 8 11 13 12 13 11 8 7 7 6 6 5
5 4 3 4 4 4 4 4 3 3 3 3 3 4 5 6 5 4 4 3 5 8 9 8 7 6 4 2 3 4 6 7 10 14 13 13 12 10 8 7 7 7 6
8 7 6 5 3 4 4 4 4 4 4 3 4 5 5 5 5 3 4 4 3 5 6 6 7 5 4 3 2 1 2 5 7 11 15 13 12 11 10 9 7 7 7
10 10 8 8 5 5 4 4 3 4 4 4 4 4 4 5 5 4 4 4 4 3 3 2 3 2 2 3 3 3 2 3 4 6 11 14 14 12 12 11 9 7 7
9 9 10 9 7 6 6 4 4 4 4 4 5 4 5 6 6 4 4 4 4 2 2 2 2 2 1 2 3 4 3 4 5 5 6 10 14 15 14 13 12 9 8
9 10 11 9 8 7 6 5 4 5 4 3 3 5 7 6 6 4 3 5 4 3 2 2 2 2 1 1 3 3 4 4 4 4 4 4 10 14 16 15 13 11 10
12 11 11 11 9 7 5 5 5 5 4 4 4 6 7 7 8 5 5 5 5 5 5 5 3 3 2 2 1 1 1 3 4 5 4 3 4 9 16 17 14 13 11
12 12 12 11 10 9 6 6 6 6 5 6 5 5 6 7 8 8 8 7 6 6 7 7 5 3 3 2 2 1 1 2 2 4 5 5 4 5 7 13 15 16 15
12 13 12 11 11 10 9 6 7 6 5 5 6 5 5 6 7 7 8 8 8 8 8 8 8 7 6 4 3 3 4 4 2 2 3 4 4 4 5 6 10 15 17
13 12 13 12 12 11 9 7 8 7 7 7 6 6 6 5 6 6 7 8 8 8 8 9 9 7 7 6 4 4 3 3 3 2 2 2 2 3 3 3 4 10 15
11 11 11 11 11 11 10 9 8 7 6 6 6 6 6 5 5 5 5 6 8 8 8 9 9 10 9 8 6 4 4 2 2 3 2 1 2 1 1 1 1 3 10
9 10 10 10 11 11 11 10 9 9 8 8 7 6 5 4 4 5 5 5 5 6 8 9 9 10 10 10 8 6 5 4 4 4 3 3 2 1 1 1 1 1 4
Wind_Direction
126 126 131 124 116 110 106 106 109 116 119 122 121 117 111 104 91 76 61 51 42 37 31 29 32 37 42 45 48 45 47 48 53 66 75 74 69 63 53 42 69 86 88
125 128 133 129 125 120 115 113 113 115 117 120 122 121 115 108 101 93 78 64 51 43 40 40 32 38 48 54 58 49 45 42 38 59 89 84 72 64 58 57 69 82 85
123 131 136 136 133 130 127 124 122 121 122 123 124 123 120 114 110 105 95 85 75 66 66 64 56 65 74 69 66 51 36 10 347 342 341 100 88 67 62 63 69 75 81
127 140 140 141 140 138 137 136 134 132 131 131 132 131 129 126 122 117 113 109 103 97 95 92 92 98 102 94 87 68 22 326 318 332 35 85 82 70 65 66 69 74 79
130 132 133 144 145 145 145 146 145 144 142 141 141 142 142 140 137 131 125 121 117 118 119 113 106 118 121 124 125 120 289 291 307 331 85 89 79 72 67 67 68 73 78
127 125 137 145 149 152 155 159 158 157 157 157 157 157 156 158 158 154 149 139 129 126 130 132 133 139 143 144 156 194 260 278 296 310 103 103 90 76 69 68 71 72 78
131 132 144 150 156 162 168 172 170 171 173 174 172 171 172 176 178 174 169 161 150 140 140 146 152 154 158 163 177 209 251 271 273 239 113 101 95 84 76 71 73 76 82
128 137 147 158 164 171 179 182 184 187 189 190 190 188 191 192 190 189 183 175 169 165 161 162 167 169 168 175 190 217 251 277 285 173 114 102 100 90 82 79 76 79 85
125 138 153 164 172 180 186 190 193 198 200 201 202 201 204 206 206 202 196 190 185 183 184 181 179 181 184 192 203 224 249 267 287 238 119 110 108 100 91 87 84 81 85
82 114 154 165 173 181 189 195 198 202 204 207 209 208 210 212 214 212 205 200 196 195 196 195 194 196 200 205 214 230 250 272 273 147 115 118 116 109 101 95 92 89 89
32 27 41 108 166 187 189 189 194 203 206 208 212 214 213 215 214 210 215 196 195 199 202 204 205 208 213 217 221 229 244 252 249 118 115 127 127 120 114 109 104 100 98
22 17 19 20 18 356 305 170 186 196 200 208 216 210 211 226 227 215 204 188 192 199 205 211 213 216 223 221 218 224 236 239 227 138 129 137 135 134 131 126 119 115 111
14 14 9 5 7 12 4 14 175 177 184 205 221 214 213 230 242 219 184 183 192 199 208 210 214 223 223 221 200 204 225 230 187 127 137 141 142 147 149 146 139 131 127
13 6 3 359 356 355 357 354 353 28 169 232 224 217 210 226 238 233 195 188 191 197 207 199 210 219 224 218 198 206 207 193 147 126 142 146 148 157 165 164 160 154 147
17 357 358 354 354 346 347 335 337 342 2 280 266 230 205 206 226 240 229 204 197 197 202 208 211 225 221 210 198 205 188 182 146 134 144 153 155 164 175 177 175 171 168
3 354 353 346 341 333 334 327 318 326 317 286 260 245 227 208 211 227 246 224 215 209 198 201 221 244 218 229 227 188 163 163 149 140 149 158 163 168 173 179 182 181 180
352 345 345 323 317 318 320 311 307 296 289 279 275 263 247 218 209 215 240 244 238 233 221 211 227 234 193 195 236 252 153 162 160 153 153 160 166 173 177 178 178 182 187
349 339 329 321 326 318 301 286 274 272 264 258 263 269 269 251 222 200 226 238 241 248 256 235 265 256 190 181 190 206 191 155 161 156 158 165 167 172 179 181 178 180 186
340 331 323 323 320 311 302 286 270 263 253 248 245 241 244 250 241 212 207 223 238 225 230 233 233 261 239 200 202 196 191 175 177 179 186 183 165 162 167 178 178 177 181
340 336 328 324 320 317 306 297 287 279 273 261 241 231 230 235 243 237 213 210 212 226 241 231 224 256 265 227 229 209 188 183 173 182 203 184 164 164 161 167 172 179 183
348 340 330 328 328 325 321 315 309 302 295 284 266 251 231 226 231 233 233 216 203 200 207 216 212 227 245 275 260 292 242 196 181 185 195 196 192 172 162 168 176 173 176
346 340 333 334 333 332 323 315 303 299 292 282 276 266 250 232 223 230 227 219 207 201 200 206 205 206 219 227 185 186 280 296 249 199 187 194 206 171 170 178 178 170 170
352 347 340 340 338 336 330 323 314 305 293 285 285 281 268 256 237 228 226 222 209 201 201 202 201 200 205 215 204 174 177 209 246 279 217 194 210 198 187 191 184 171 167
356 352 348 348 347 345 338 328 320 308 299 294 292 287 283 270 258 241 233 227 218 208 202 201 199 198 196 209 216 214 203 162 162 220 270 245 232 215 195 193 189 179 166
358 358 354 355 354 351 347 340 331 321 309 304 301 297 293 285 276 266 247 234 223 214 206 202 199 197 202 204 198 195 207 207 195 166 197 254 280 274 312 225 174 165 156
3 1 360 2 0 357 355 353 347 337 334 332 327 316 310 305 296 282 265 248 233 222 213 208 206 202 205 205 201 198 190 181 189 180 181 193 211 280 318 336 18 63 126
Height
1533 1534 1537 1538 1540 1541 1543 1544 1546 1547 1548 1549 1550 1552 1552 1553 1554 1555 1556 1557 1557 1558 1559 1559 1560 1560 1560 1561 1561 1561 1561 1561 1561 1561 1561 1561 1561 1561 1560 1560 1561 1560 1561
1533 1535 1537 1539 1541 1542 1544 1545 1547 1548 1549 1550 1551 1552 1553 1554 1555 1555 1556 1557 1558 1558 1559 1559 1560 1560 1561 1561 1561 1562 1562 1563 1563 1563 1563 1563 1563 1562 1562 1562 1562 1562 1562
1534 1536 1538 1540 1542 1543 1545 1546 1547 1549 1550 1551 1552 1552 1553 1554 1555 1556 1556 1557 1558 1558 1559 1559 1560 1560 1561 1561 1562 1563 1563 1564 1564 1564 1564 1564 1564 1564 1563 1563 1563 1563 1563
1535 1537 1539 1541 1543 1544 1545 1547 1548 1549 1550 1551 1552 1553 1553 1554 1555 1556 1556 1557 1558 1558 1559 1559 1560 1560 1561 1562 1562 1563 1564 1565 1565 1565 1565 1565 1565 1565 1564 1564 1564 1564 1564
1538 1539 1540 1542 1543 1545 1546 1547 1548 1549 1550 1551 1552 1553 1553 1554 1555 1556 1556 1557 1557 1558 1559 1559 1560 1560 1561 1562 1563 1564 1564 1565 1566 1566 1566 1566 1566 1566 1565 1565 1565 1565 1565
1540 1540 1542 1543 1544 1545 1546 1547 1548 1549 1550 1551 1552 1553 1553 1554 1555 1556 1556 1557 1557 1558 1558 1559 1560 1560 1561 1562 1563 1564 1565 1566 1566 1566 1567 1567 1567 1566 1566 1566 1566 1566 1566
1541 1541 1543 1544 1545 1546 1547 1548 1549 1549 1550 1551 1552 1552 1553 1554 1555 1555 1556 1556 1557 1557 1558 1558 1559 1560 1561 1562 1563 1564 1565 1566 1566 1567 1567 1567 1567 1567 1567 1567 1566 1567 1567
1542 1542 1543 1545 1545 1546 1547 1548 1548 1549 1550 1550 1551 1552 1553 1554 1554 1555 1555 1556 1556 1557 1557 1558 1559 1560 1560 1562 1563 1564 1565 1566 1566 1568 1567 1567 1568 1568 1567 1567 1567 1567 1568
1544 1543 1543 1544 1545 1546 1547 1548 1548 1549 1549 1550 1550 1551 1552 1553 1553 1554 1555 1555 1555 1556 1556 1557 1558 1559 1560 1561 1562 1564 1565 1566 1567 1568 1567 1567 1568 1568 1568 1568 1568 1568 1568
1545 1545 1544 1544 1544 1545 1546 1547 1548 1548 1548 1549 1549 1550 1551 1551 1552 1553 1554 1554 1555 1555 1556 1556 1557 1558 1559 1560 1562 1563 1564 1565 1566 1567 1567 1568 1568 1568 1568 1568 1568 1569 1569
1545 1545 1545 1545 1545 1544 1544 1545 1546 1546 1547 1547 1548 1548 1549 1550 1551 1551 1552 1553 1554 1554 1555 1555 1556 1557 1559 1560 1561 1562 1564 1565 1566 1567 1567 1568 1568 1568 1568 1568 1568 1569 1569
1544 1544 1544 1544 1544 1545 1545 1544 1544 1545 1545 1546 1546 1546 1547 1548 1549 1550 1551 1552 1553 1553 1553 1554 1555 1556 1558 1559 1560 1562 1563 1564 1565 1566 1567 1567 1567 1567 1567 1567 1568 1568 1569
1544 1543 1542 1542 1542 1543 1543 1543 1543 1543 1544 1544 1544 1544 1545 1546 1547 1548 1549 1550 1551 1551 1552 1553 1554 1555 1556 1557 1559 1561 1562 1563 1565 1565 1566 1567 1567 1566 1566 1566 1567 1568 1569
1543 1542 1541 1541 1541 1541 1541 1541 1540 1541 1541 1541 1542 1542 1542 1543 1543 1545 1546 1547 1548 1549 1550 1551 1552 1554 1555 1556 1558 1560 1561 1563 1564 1564 1565 1566 1566 1565 1565 1565 1566 1567 1568
1543 1542 1541 1539 1538 1538 1538 1538 1537 1538 1538 1537 1538 1539 1539 1540 1541 1542 1543 1545 1546 1547 1548 1549 1551 1552 1554 1556 1558 1559 1561 1562 1563 1563 1564 1565 1565 1564 1564 1564 1565 1566 1567
1544 1542 1540 1538 1537 1536 1535 1535 1534 1534 1535 1535 1535 1536 1536 1537 1538 1539 1540 1542 1543 1544 1546 1548 1549 1551 1553 1555 1557 1558 1559 1561 1562 1562 1563 1564 1564 1563 1563 1563 1564 1565 1566
1544 1542 1540 1538 1536 1534 1533 1532 1531 1531 1530 1531 1531 1531 1532 1533 1534 1536 1537 1539 1540 1541 1543 1545 1547 1549 1551 1553 1554 1556 1558 1559 1560 1561 1561 1562 1563 1563 1563 1563 1563 1564 1565
1543 1541 1539 1537 1535 1533 1531 1530 1528 1528 1527 1527 1527 1526 1527 1528 1529 1531 1533 1535 1536 1537 1539 1541 1544 1547 1548 1550 1552 1554 1556 1557 1559 1560 1560 1561 1561 1562 1562 1563 1563 1564 1565
1542 1539 1537 1535 1532 1530 1528 1527 1525 1524 1524 1523 1523 1523 1524 1524 1526 1526 1528 1530 1532 1533 1535 1537 1540 1543 1545 1547 1549 1551 1553 1555 1556 1558 1559 1560 1560 1560 1561 1562 1562 1563 1564
1540 1537 1534 1532 1529 1527 1525 1523 1522 1521 1520 1519 1519 1519 1519 1520 1521 1522 1523 1525 1527 1529 1531 1534 1537 1539 1542 1544 1546 1548 1550 1552 1554 1555 1557 1559 1559 1559 1560 1561 1562 1562 1563
1537 1534 1531 1529 1526 1524 1522 1520 1519 1517 1516 1515 1515 1514 1514 1515 1516 1517 1518 1520 1522 1524 1526 1529 1532 1535 1538 1540 1543 1545 1546 1548 1550 1552 1554 1556 1558 1558 1558 1559 1561 1561 1562
1535 1532 1529 1526 1523 1520 1518 1516 1515 1514 1512 1511 1510 1510 1510 1510 1511 1512 1513 1514 1516 1518 1521 1524 1527 1530 1533 1536 1539 1541 1543 1545 1547 1549 1550 1552 1555 1556 1557 1558 1559 1560 1561
1534 1531 1527 1524 1521 1518 1515 1513 1511 1509 1508 1507 1506 1505 1505 1505 1505 1506 1507 1508 1510 1512 1514 1517 1521 1524 1527 1531 1534 1537 1539 1540 1542 1545 1546 1548 1551 1553 1555 1557 1558 1558 1559
1534 1530 1526 1522 1518 1515 1512 1510 1508 1506 1504 1502 1501 1500 1500 1500 1500 1500 1501 1502 1504 1506 1509 1512 1515 1517 1521 1524 1528 1531 1534 1536 1538 1540 1542 1544 1546 1549 1551 1553 1556 1557 1557
1534 1530 1525 1521 1517 1514 1511 1508 1505 1503 1500 1498 1497 1496 1495 1495 1495 1495 1496 1497 1498 1500 1503 1505 1508 1511 1514 1518 1521 1524 1528 1531 1533 1536 1537 1540 1542 1544 1546 1549 1552 1554 1555
1535 1530 1525 1521 1517 1513 1510 1507 1504 1501 1498 1496 1494 1493 1492 1491 1491 1491 1491 1492 1493 1495 1497 1500 1502 1505 1508 1511 1515 1518 1521 1524 1527 1531 1533 1535 1538 1540 1542 1545 1547 1549 1552